Terug naar catalogus

FENGYUN 1C DEB

ActiefSSO
NORAD 37715·DEBRIS·🇨🇳 China

Gelanceerd May 10, 1999 vanaf Taiyuan Satellite Launch Center

Loading…

Volgende Passages (komende 24 uur)

TLE

VerouderendSource: Space-Track

Epoch: Sep 7, 2026, 18:42 UTC

1 37715U 99025EMG 26250.77931524  .00000513  00000-0  38509-3 0  9998
2 37715  98.9569 256.0374 0114917  92.9688  82.2070 13.95769455615569

Volg FENGYUN 1C DEB in realtime met AllMySat

Download on the App Store